sat.trackr.live / text

‹ back to catalog

JAY-D2

NORAD 62665 · 2025-009BJ

PAYLOAD ACTIVE UNKNOWN

§ Identity

Operator
Country
CA
Launch date
2025-01-14
Launch site
AFWTR
Launch vehicle
Mass (kg)
RCS (m²)

External: N2YO · Heavens-Above · Gunter

§ Orbital elements

Epoch: 2026-05-25T04:14:21.085152Z

Period
94.60 min
Inclination
97.3891°
Eccentricity
0.0005404
Mean motion
15.22156174 rev/d
Perigee alt
495.6 km
Apogee alt
503.1 km
Semi-major
6,877.5 km
B*
1.5115e-4
RAAN
224.0588°
Arg perigee
65.9685°
Mean anomaly
294.2117°
Rev number
7,523

§ Raw data

JAY-D21 62665U 25009BJ  26145.17663293  .00003398  00000+0  15115-3 0  99942 62665  97.3891 224.0588 0005404  65.9685 294.2117 15.22156174 75232

JSON: /api/v1/satellites/62665 · /tle

For live sub-satellite position, see the globe view (requires WebGL).

§ Visibility from observer

Set your observer location to see the next 7 days of passes ≥ 10°. The values pass through the URL so the page stays shareable.

No JS? Fill the form by hand. The geolocation button needs JavaScript.